Date,TemperatureHighF,TemperatureAvgF,TemperatureLowF,DewpointHighF,DewpointAvgF,DewpointLowF,HumidityHigh,HumidityAvg,HumidityLow,PressureMaxIn,PressureMinIn,WindSpeedMaxMPH,WindSpeedAvgMPH,GustSpeedMaxMPH,PrecipitationSumIn
2014-1-1,66.8,41.2,26.1,45.6,31.4,21.8,94,75,25,0.00,0.00,3,1,6,0.00
2014-1-2,65.3,43.3,28.8,43.4,33.4,27.1,93,74,33,0.00,0.00,2,1,6,0.00
2014-1-3,70.2,44.1,29.8,42.2,34.0,28.1,94,74,29,0.00,0.00,4,1,8,0.00
2014-1-4,71.2,43.2,28.5,40.9,33.8,24.3,93,75,28,0.00,0.00,3,1,7,0.00
2014-1-5,69.2,39.3,23.7,33.8,26.5,18.5,93,69,15,0.00,0.00,2,1,6,0.00
2014-1-6,57.3,40.3,27.8,38.5,30.1,23.7,88,71,29,0.00,0.00,2,1,6,0.00
2014-1-7,62.9,43.6,32.0,46.9,35.6,27.0,92,77,30,0.00,0.00,4,1,9,0.00
2014-1-8,60.0,44.0,33.0,49.4,40.6,31.6,97,88,66,0.00,0.00,4,1,7,0.00
2014-1-9,63.4,47.1,36.5,43.6,38.4,35.2,96,75,45,0.00,0.00,5,2,18,0.00
2014-1-10,63.9,45.5,31.3,47.4,38.8,29.6,94,80,48,0.00,0.00,3,1,7,0.00
2014-1-11,55.5,45.7,38.4,51.2,43.8,37.3,97,93,79,0.00,0.00,3,2,10,0.00
2014-1-12,61.9,42.9,31.8,50.1,35.2,31.0,97,80,33,0.00,0.00,3,2,9,0.04
2014-1-13,66.9,43.6,30.0,49.1,35.6,28.8,95,78,36,0.00,0.00,4,2,9,0.01
2014-1-14,69.4,41.8,27.2,47.2,32.3,25.3,94,76,31,0.00,0.00,2,1,7,0.00
2014-1-15,70.8,42.1,27.2,42.4,31.8,25.3,93,74,27,0.00,0.00,3,1,7,0.00
2014-1-16,73.2,43.7,25.0,40.4,30.7,22.6,93,70,18,0.00,0.00,3,1,7,0.00
2014-1-17,71.6,41.7,25.8,40.9,30.5,20.1,92,72,25,0.00,0.00,3,1,8,0.00
2014-1-18,72.6,42.8,26.1,37.3,29.0,20.2,93,68,16,0.00,0.00,2,1,6,0.00
2014-1-19,70.3,42.1,24.9,42.9,28.3,18.4,91,67,21,0.00,0.00,3,1,9,0.00
2014-1-20,70.8,41.8,25.1,45.4,29.3,22.8,91,70,19,0.00,0.00,3,1,8,0.00
2014-1-21,75.2,41.6,24.9,39.8,28.8,20.6,92,69,15,0.00,0.00,3,1,5,0.00
2014-1-22,73.1,44.2,27.3,42.5,29.2,21.3,92,66,16,0.00,0.00,4,2,9,0.00
2014-1-23,72.8,45.8,28.5,46.9,26.1,12.4,92,61,10,0.00,0.00,6,2,20,0.00
2014-1-24,70.0,45.0,29.2,37.6,31.3,25.5,91,67,19,0.00,0.00,4,1,13,0.00
2014-1-25,75.6,49.1,33.6,49.9,33.7,25.7,92,64,17,0.00,0.00,4,1,10,0.00
2014-1-26,72.6,47.2,33.0,41.4,35.4,30.5,91,69,25,0.00,0.00,4,2,8,0.00
2014-1-27,61.2,46.4,33.9,52.0,42.1,31.8,97,86,62,0.00,0.00,4,1,8,0.00
2014-1-28,65.0,54.2,46.1,56.8,49.3,43.6,94,84,63,0.00,0.00,3,1,12,0.00
2014-1-29,62.9,55.1,50.6,55.3,49.7,42.4,95,83,60,0.00,0.00,3,2,12,0.00
2014-1-30,51.6,47.4,46.3,46.2,44.5,42.4,94,90,78,0.00,0.00,2,1,6,0.00
2014-1-31,64.1,46.6,30.8,45.3,27.3,7.2,94,59,11,0.00,0.00,8,3,23,0.00
2014-2-1,59.4,39.6,25.6,34.3,28.7,20.0,91,70,28,0.00,0.00,6,2,14,0.00
2014-2-2,44.0,41.5,32.1,41.4,38.8,29.4,96,90,85,0.00,0.00,5,2,11,0.00
2014-2-3,55.7,40.8,29.9,48.3,34.8,28.9,96,82,43,0.00,0.00,4,2,12,0.65
2014-2-4,54.0,40.8,28.9,36.7,32.4,27.5,95,76,44,0.00,0.00,2,1,6,0.00
2014-2-5,51.4,39.8,27.2,42.5,35.0,25.6,96,84,56,0.00,0.00,3,1,9,0.00
2014-2-6,50.8,46.4,43.0,47.4,44.9,41.8,97,95,86,0.00,0.00,4,2,8,0.00
2014-2-7,54.4,50.0,45.2,52.9,48.6,44.5,98,95,91,0.00,0.00,9,4,23,0.26
2014-2-8,56.9,55.3,53.0,55.4,54.0,52.1,97,96,94,0.00,0.00,6,4,23,0.00
2014-2-9,57.6,56.3,54.6,56.0,54.9,53.6,97,95,93,0.00,0.00,5,3,17,1.62
2014-2-10,60.9,53.3,46.7,55.0,51.3,46.2,98,93,80,0.00,0.00,3,2,8,0.00
2014-2-11,62.1,49.5,39.2,51.4,46.0,38.9,99,89,63,0.00,0.00,4,2,10,0.00
2014-2-12,58.9,51.3,45.8,52.3,48.7,45.4,99,91,76,0.00,0.00,4,2,8,0.00
2014-2-13,66.2,55.2,50.2,57.5,52.7,49.3,99,92,74,0.00,0.00,3,1,8,0.00
2014-2-14,52.2,50.3,49.4,51.4,49.6,48.7,98,97,97,0.00,0.00,2,1,4,0.00
2014-3-12,73.6,65.2,44.6,40.2,29.4,20.8,77,32,17,0.00,40.00,10,5,23,0.00
2014-3-13,76.7,58.2,35.5,46.3,32.1,19.4,92,51,12,0.00,0.00,5,2,14,0.00
2014-3-14,74.9,54.7,40.4,57.6,45.7,38.9,97,77,38,0.00,0.00,4,2,11,0.00
2014-3-15,79.4,58.4,41.3,54.0,46.0,38.8,96,70,25,0.00,0.00,6,2,14,0.00
2014-3-16,76.0,54.5,38.5,53.8,39.5,24.9,96,66,18,0.00,0.00,6,2,15,0.00
2014-3-17,68.3,55.3,44.0,50.5,43.0,38.9,89,67,37,0.00,0.00,6,3,14,0.00
2014-3-18,71.7,52.3,36.8,52.1,34.8,21.9,95,62,16,0.00,0.00,6,2,14,0.00
2014-3-19,75.6,51.8,34.2,41.6,34.6,18.9,93,62,20,0.00,0.00,5,2,12,0.00
2014-3-20,74.3,53.6,39.9,44.6,40.4,37.5,93,66,31,0.00,0.00,5,2,11,0.00
2014-3-21,67.1,49.5,39.2,55.7,42.9,34.6,97,81,49,0.00,0.00,7,2,17,0.00
2014-3-22,68.9,50.0,34.1,52.9,41.0,29.1,96,76,32,0.00,0.00,7,2,15,0.00
2014-3-23,72.2,52.6,38.6,49.9,44.2,36.8,96,77,45,0.00,0.00,6,2,12,0.00
2014-3-24,76.3,53.5,35.5,51.7,39.9,13.6,95,67,16,0.00,0.00,5,2,12,0.00
2014-3-25,61.4,45.9,34.3,54.6,42.8,32.3,96,89,68,0.00,0.00,4,1,11,0.00
2014-3-26,60.1,52.0,46.1,50.4,47.2,44.9,96,85,62,0.00,0.00,6,3,20,0.25
2014-3-27,59.1,52.3,45.1,50.6,47.7,44.0,96,85,65,0.00,0.00,5,2,12,0.43
2014-3-28,63.3,56.4,52.1,53.4,52.1,50.6,97,86,70,0.00,0.00,8,4,25,0.00
2014-3-29,57.8,54.4,46.6,54.6,50.5,44.8,94,87,77,0.00,0.00,7,3,20,0.00
2014-3-30,61.2,48.8,38.0,46.4,41.4,37.0,96,78,49,0.00,0.00,6,2,20,0.29
2014-3-31,51.5,45.6,40.4,47.2,43.3,39.2,96,92,82,0.00,0.00,7,2,20,0.00
2014-4-1,54.0,45.8,42.1,44.8,43.1,41.1,96,91,65,0.00,0.00,5,2,19,0.10
2014-4-2,61.9,51.2,40.0,45.3,42.9,38.7,96,76,49,0.00,0.00,5,2,16,0.00
2014-4-3,61.5,50.9,40.3,47.8,43.5,37.5,97,79,44,0.00,0.00,6,2,17,0.00
2014-4-4,58.6,51.4,47.0,51.8,48.1,45.8,96,89,71,0.00,0.00,4,2,13,0.00
2014-4-5,68.3,53.8,37.4,51.5,45.1,36.5,97,75,49,0.00,0.00,5,2,14,0.00
2014-4-6,78.6,58.7,41.4,55.2,47.4,40.3,96,72,35,0.00,0.00,4,2,12,0.00
2014-4-7,83.2,62.3,45.5,55.3,49.3,39.9,96,69,28,0.00,0.00,4,1,14,0.00
2014-4-8,80.4,61.7,46.3,58.5,50.9,44.2,96,72,41,0.00,0.00,4,2,10,0.00
2014-4-9,70.7,57.3,46.7,55.0,49.8,45.4,96,78,57,0.00,0.00,6,3,12,0.00
2014-4-10,79.7,57.6,46.0,59.5,48.8,38.9,97,77,36,0.00,0.00,6,2,13,0.00
2014-4-11,65.9,53.4,46.8,53.9,48.4,45.5,96,84,59,0.00,0.00,5,3,14,0.00
2014-4-12,63.6,55.9,50.5,50.6,47.7,45.4,87,75,61,0.00,0.00,7,3,17,0.00
2014-4-13,72.3,57.6,49.5,56.3,49.3,46.7,92,76,48,0.00,0.00,6,2,14,0.00
2014-4-14,71.8,54.6,41.8,60.7,49.1,40.4,97,84,56,0.00,0.00,6,2,13,0.00
2014-4-15,73.0,57.1,48.1,55.6,50.3,46.2,97,81,49,0.00,0.00,6,2,12,0.00
2014-4-16,79.1,62.4,42.8,58.6,46.7,39.7,96,64,25,0.00,0.00,6,2,13,0.00
2014-4-17,80.0,61.6,44.9,58.2,46.7,31.5,95,64,21,0.00,0.00,6,2,20,0.00
2014-4-18,75.8,60.3,44.2,50.6,46.7,42.4,93,65,34,0.00,0.00,7,3,14,0.00
2014-4-19,71.1,55.1,40.9,54.1,46.3,39.5,96,75,37,0.00,0.00,6,2,21,0.00
2014-4-20,80.0,59.1,41.9,51.6,45.3,37.7,95,68,23,0.00,0.00,5,2,13,0.00
2014-4-21,68.3,54.2,42.0,48.4,42.9,29.3,93,69,35,0.00,0.00,5,2,16,0.00
2014-4-22,63.4,54.9,46.9,48.4,39.2,34.1,83,57,35,0.00,0.00,8,4,21,0.00
2014-4-23,68.9,53.5,37.9,47.2,40.6,35.4,92,65,34,0.00,0.00,7,3,22,0.00
2014-4-24,68.7,56.8,46.8,54.1,49.2,44.6,93,78,50,0.00,0.00,7,3,21,0.00
2014-4-25,58.2,53.4,44.1,50.2,46.2,40.5,93,77,55,0.00,0.00,5,2,21,0.00
2014-4-26,63.7,50.7,35.5,48.4,37.9,32.5,94,66,31,0.00,0.00,9,3,27,0.00
2014-4-27,64.6,55.6,48.3,53.0,46.4,42.1,94,73,47,0.00,0.00,6,3,18,0.00
2014-4-28,72.4,54.9,39.4,46.1,41.5,34.5,94,67,25,0.00,0.00,6,2,14,0.00
2014-4-29,90.8,65.5,42.0,55.5,43.0,31.4,92,57,12,0.00,0.00,5,2,14,0.00
2014-4-30,89.1,69.0,45.0,51.5,43.4,33.0,90,50,16,0.00,0.00,6,2,16,0.00
2014-5-1,88.5,66.0,45.3,48.4,40.0,23.7,91,50,10,0.00,0.00,5,2,13,0.00
2014-5-2,78.3,60.8,42.8,53.9,43.5,33.8,90,59,20,0.00,0.00,6,2,19,0.00
2014-5-3,68.8,59.3,46.9,57.1,46.6,43.8,96,66,44,0.00,0.00,8,4,22,0.00
2014-5-4,68.1,56.7,46.3,49.3,46.0,43.2,89,69,48,0.00,0.00,6,3,20,0.00
2014-5-5,66.7,57.1,45.5,54.3,43.4,38.0,89,63,41,0.00,0.00,6,3,18,0.00
2014-5-6,73.3,59.9,41.0,45.0,40.4,37.6,88,52,31,0.00,0.00,6,3,17,0.00
2014-5-7,71.8,58.5,40.5,47.2,42.0,31.8,90,58,31,0.00,0.00,6,3,14,0.00
2014-5-8,64.8,56.7,46.7,55.9,49.6,41.8,93,78,55,0.00,0.00,6,3,15,0.00
2014-5-9,68.7,59.5,47.9,53.8,46.9,40.5,95,66,47,0.00,0.00,6,3,20,0.03
2014-5-10,69.8,58.1,42.0,43.4,39.2,34.4,86,53,29,0.00,0.00,7,3,22,0.00
2014-5-11,77.5,56.9,39.2,42.0,35.3,23.7,90,56,14,0.00,0.00,6,2,18,0.00
2014-5-12,85.2,62.6,41.1,46.1,37.4,26.4,87,50,13,0.00,0.00,5,2,14,0.00
2014-5-13,91.8,66.1,45.0,44.1,40.2,33.1,84,48,14,0.00,0.00,5,2,13,0.00
2014-5-14,93.2,68.5,46.2,45.3,38.6,22.4,77,43,9,0.00,0.00,5,2,13,0.00
2014-5-15,88.7,67.1,42.6,52.6,37.3,19.6,82,43,8,0.00,0.00,5,2,17,0.00
2014-5-16,84.2,65.4,42.2,50.2,43.4,31.4,84,50,24,0.00,0.00,5,3,14,0.00
2014-5-17,81.1,61.8,43.8,50.0,44.6,39.4,88,58,28,0.00,0.00,5,2,18,0.00
2014-5-18,72.2,61.8,47.7,48.8,45.1,38.6,84,56,41,0.00,0.00,7,3,21,0.00
2014-5-19,67.0,59.5,51.5,46.8,44.8,41.6,77,59,41,0.00,0.00,8,4,26,0.00
2014-5-20,73.8,60.7,46.4,48.9,44.6,42.1,88,59,33,0.00,0.00,6,3,17,0.00
2014-5-21,78.4,59.6,45.5,52.4,47.7,41.8,89,68,34,0.00,0.00,7,3,20,0.00
2014-5-22,72.6,59.1,49.9,53.0,49.8,45.9,92,74,49,0.00,0.00,6,3,14,0.00
2014-5-23,74.6,61.2,49.4,55.9,51.8,46.7,94,73,48,0.00,0.00,6,3,14,0.00
2014-5-24,86.8,66.7,48.9,55.9,50.8,45.7,89,61,27,0.00,0.00,6,2,12,0.00
2014-5-25,94.0,69.5,47.0,58.7,44.5,35.3,88,50,13,0.00,0.00,6,2,20,0.00
2014-5-26,88.9,68.3,46.3,48.8,43.9,35.6,78,46,22,0.00,0.00,6,3,18,0.00
2014-5-27,84.3,62.2,41.6,45.5,39.9,30.6,85,50,20,0.00,0.00,4,2,15,0.00
2014-5-28,81.6,63.0,41.4,43.6,34.1,23.2,70,39,12,0.00,0.00,6,3,20,0.00
2014-5-29,81.1,63.1,42.5,46.5,38.9,21.2,87,50,11,0.00,0.00,6,2,15,0.00
2014-5-30,68.7,54.8,40.5,48.7,44.6,36.3,94,71,47,0.00,0.00,7,3,14,0.00
2014-5-31,75.6,58.4,44.9,51.0,47.4,41.2,94,71,38,0.00,0.00,6,3,15,0.00
2014-6-1,75.8,58.7,43.5,52.4,47.4,40.1,95,70,41,0.00,0.00,7,3,13,0.00
2014-6-2,52.2,50.0,47.2,47.6,46.5,42.4,90,88,83,0.00,0.00,3,2,8,0.00
2014-6-6,70.2,62.9,50.9,52.3,50.7,47.9,89,66,53,0.00,0.00,7,5,18,0.00
2014-6-7,77.2,60.5,50.9,54.6,50.6,47.9,91,73,45,0.00,0.00,7,3,15,0.00
2014-6-8,97.5,71.5,46.3,58.8,49.3,38.4,89,56,14,0.00,0.00,5,2,14,0.00
2014-6-9,92.5,70.2,52.0,57.4,52.4,48.0,88,58,29,0.00,0.00,6,3,14,0.00
2014-6-10,67.7,58.9,49.6,53.5,50.9,46.1,88,76,60,0.00,0.00,8,4,22,0.00
2014-6-11,65.7,58.2,53.8,52.3,50.9,49.1,86,77,60,0.00,0.00,6,3,17,0.00
2014-6-12,79.7,62.8,51.6,51.4,48.7,46.1,93,64,35,0.00,0.00,5,3,14,0.00
2014-6-13,83.4,64.7,41.6,54.7,44.4,38.3,88,54,24,0.00,0.00,4,2,13,0.00
2014-6-14,82.5,63.5,46.1,51.4,46.9,41.3,88,58,29,0.00,0.00,7,2,16,0.00
2014-6-15,82.6,63.3,44.2,51.7,46.3,40.8,88,58,31,0.00,0.00,6,2,13,0.00
2014-6-16,75.6,62.0,44.6,52.2,43.2,38.9,85,54,32,0.00,0.00,5,2,15,0.00
2014-6-17,79.5,62.4,41.9,43.6,37.6,29.3,79,46,19,0.00,0.00,6,2,16,0.00
2014-6-18,86.6,69.5,44.1,54.3,39.2,24.6,84,42,11,0.00,0.00,6,3,19,0.00
2014-6-19,81.7,65.8,41.9,50.8,47.2,37.2,85,55,28,0.00,0.00,6,3,14,0.00
2014-6-20,90.4,68.4,44.7,53.0,44.0,27.9,88,50,14,0.00,0.00,5,2,18,0.00
2014-6-21,84.3,65.1,47.2,50.6,45.9,40.8,85,55,22,0.00,0.00,7,3,15,0.00
2014-6-22,80.6,61.0,43.6,49.9,45.5,35.3,89,62,27,0.00,0.00,7,3,15,0.00
2014-6-23,88.9,66.1,45.4,56.2,48.3,42.1,88,58,29,0.00,0.00,6,2,13,0.00
2014-6-24,90.8,70.4,49.6,51.0,47.2,43.8,83,49,20,0.00,0.00,6,2,19,0.00
2014-6-25,78.2,65.7,50.5,56.3,53.4,46.9,88,66,47,0.00,0.00,6,3,22,0.00
2014-6-26,72.8,64.2,56.9,54.8,52.7,51.2,84,68,50,0.00,0.00,6,3,22,0.00
2014-6-27,76.8,67.4,52.8,58.7,55.3,49.6,91,67,50,0.00,0.00,6,3,19,0.00
2014-6-28,84.8,69.6,47.8,59.9,50.9,44.9,90,56,31,0.00,0.00,5,2,15,0.00
2014-6-29,93.5,70.6,47.2,52.0,48.4,43.2,87,52,18,0.00,0.00,6,2,13,0.00
2014-6-30,91.8,69.7,52.0,54.6,50.2,47.8,86,55,24,0.00,0.00,7,3,15,0.00
2014-7-1,71.9,60.3,54.3,53.5,51.7,50.0,89,75,49,0.00,0.00,6,4,16,0.00
2014-7-2,77.8,63.7,54.6,55.2,53.2,51.2,91,72,46,0.00,0.00,6,3,13,0.00
2014-7-3,80.6,58.4,48.4,54.0,48.9,44.5,90,74,40,0.00,0.00,4,1,11,0.00
2014-7-4,79.1,64.3,46.8,54.3,49.3,39.0,89,62,38,0.00,0.00,6,4,13,0.00
2014-7-5,83.1,66.1,51.6,54.7,50.1,40.1,95,62,25,0.00,0.00,6,3,13,0.00
2014-7-6,89.5,63.3,42.5,54.5,47.3,38.3,94,64,19,0.00,0.00,7,2,14,0.00
2014-7-7,80.6,64.0,50.3,55.8,51.6,46.3,92,67,41,0.00,0.00,5,2,12,0.00
2014-7-8,80.7,64.5,55.4,55.5,52.9,51.3,88,68,41,0.00,0.00,6,3,16,0.00
2014-7-9,72.0,60.8,55.0,55.6,53.3,51.2,91,78,56,0.00,0.00,6,3,19,0.00
2014-7-10,70.3,61.3,56.4,55.5,53.9,52.8,92,78,58,0.00,0.00,5,3,14,0.00
2014-7-11,70.3,62.1,56.4,54.1,52.8,51.0,89,73,53,0.00,0.00,6,3,17,0.00
2014-7-12,79.5,63.7,52.7,56.0,53.0,49.3,88,70,45,0.00,0.00,6,3,14,0.00
2014-7-13,88.7,66.4,51.8,58.5,54.1,47.8,95,70,33,0.00,0.00,6,2,14,0.00
2014-7-14,89.9,65.5,50.1,55.9,50.2,39.5,89,63,26,0.00,0.00,7,3,18,0.00
2014-7-15,78.5,65.3,56.1,58.9,55.3,52.1,87,72,45,0.00,0.00,5,3,20,0.00
2014-7-16,71.1,63.6,59.9,57.4,56.2,55.4,85,77,61,0.00,0.00,7,3,16,0.00
2014-7-17,71.8,62.7,58.1,56.0,54.3,53.0,86,75,57,0.00,0.00,7,3,18,0.00
2014-7-18,71.0,61.9,56.9,56.2,54.4,52.6,93,78,55,0.00,0.00,6,3,15,0.00
2014-7-19,75.5,63.4,55.8,56.8,54.1,52.4,89,73,51,0.00,0.00,7,3,17,0.00
2014-7-20,68.0,60.7,54.0,55.9,53.7,50.7,88,78,65,0.00,0.00,5,2,13,0.00
2014-7-21,73.8,64.6,56.9,58.9,56.7,53.5,92,77,55,0.00,0.00,6,2,20,0.00
2014-7-22,74.4,64.7,54.0,58.2,55.5,50.8,90,74,52,0.00,0.00,6,3,16,0.00
2014-7-23,77.6,67.3,56.5,60.1,57.0,53.3,90,71,48,0.00,0.00,6,2,15,0.00
2014-7-24,89.5,69.3,48.3,56.4,50.9,45.1,90,58,25,0.00,0.00,5,2,14,0.00
2014-7-25,95.6,73.4,50.3,57.7,47.1,35.8,85,49,13,0.00,0.00,6,2,14,0.00
2014-7-26,90.6,68.7,49.0,54.7,49.9,41.7,84,56,26,0.00,0.00,6,2,13,0.00
2014-7-27,86.6,68.9,57.2,55.7,52.7,50.0,86,60,33,0.00,0.00,6,3,16,0.00
2014-7-28,76.9,64.1,54.1,54.7,52.5,51.3,90,68,44,0.00,0.00,7,4,15,0.00
2014-7-29,86.8,65.4,51.3,56.3,52.6,47.8,93,68,28,0.00,0.00,6,3,16,0.00
2014-7-30,84.9,64.8,55.0,57.5,54.4,51.3,93,73,39,0.00,0.00,6,3,16,0.00
2014-7-31,79.8,63.8,51.2,57.6,53.7,47.0,93,73,44,0.00,0.00,6,3,15,0.00
2014-8-1,88.7,65.0,47.2,57.6,52.4,43.9,90,68,34,0.00,0.00,6,2,15,0.00
2014-8-2,74.0,61.4,53.2,55.6,53.0,48.7,92,76,53,0.00,0.00,6,3,15,0.00
2014-8-3,69.3,59.1,55.4,54.2,52.5,51.8,90,79,59,0.00,0.00,6,3,14,0.00
2014-8-4,70.9,60.4,55.4,56.1,53.7,51.8,91,79,59,0.00,0.00,5,2,13,0.00
2014-8-5,67.4,62.2,57.1,60.1,55.9,53.4,89,80,71,0.00,0.00,3,2,8,0.00
2014-8-6,86.9,69.1,58.4,61.7,57.1,53.5,92,69,38,0.00,0.00,6,3,15,0.00
2014-8-7,78.6,64.0,52.8,58.1,53.4,49.6,91,71,43,0.00,0.00,6,2,14,0.00
2014-8-8,82.6,64.6,47.9,56.0,51.3,44.4,90,66,37,0.00,0.00,6,2,16,0.00
2014-8-9,74.1,60.2,46.3,52.4,49.4,42.8,88,70,46,0.00,0.00,6,3,14,0.00
2014-8-10,72.7,60.7,53.0,54.6,52.4,48.9,88,76,52,0.00,0.00,6,3,18,0.00
2014-8-11,79.4,64.3,51.5,55.5,53.3,48.2,88,70,43,0.00,0.00,6,3,16,0.00
2014-8-12,62.7,59.2,57.4,55.9,53.9,52.5,90,83,74,0.00,0.00,2,1,8,0.00
2014-8-13,76.5,67.1,54.9,55.3,53.4,50.3,88,63,45,0.00,0.00,7,3,15,0.00
2014-8-14,75.5,60.8,49.2,61.9,52.1,46.1,95,76,47,0.00,0.00,6,3,14,0.00
2014-8-15,80.7,63.8,54.6,58.4,54.2,51.2,94,74,42,0.00,0.00,6,3,13,0.00
2014-8-16,80.6,63.3,52.6,54.7,52.4,49.0,91,71,39,0.00,0.00,6,2,14,0.00
2014-8-17,79.0,61.6,48.3,58.0,53.0,44.2,95,76,44,0.00,0.00,6,2,14,0.00
2014-8-18,72.2,60.6,53.2,56.5,54.0,49.9,94,80,56,0.00,0.00,5,3,14,0.00
2014-8-19,70.5,61.4,56.6,56.8,55.1,53.8,91,81,59,0.00,0.00,6,3,16,0.01
2014-8-20,66.0,60.9,58.4,57.4,56.0,54.7,94,84,69,0.00,0.00,4,2,11,0.00
2014-8-21,80.2,65.4,57.1,58.0,55.9,54.5,92,74,45,0.00,0.00,5,2,13,0.00
2014-8-22,78.2,63.7,56.8,56.1,54.9,54.1,92,76,46,0.00,0.00,8,3,18,0.00
2014-8-23,75.6,63.3,57.6,56.5,54.9,53.9,90,76,52,0.00,0.00,6,3,15,0.00
2014-8-24,74.4,63.7,57.8,54.4,53.0,51.5,87,70,47,0.00,0.00,7,3,15,0.00
2014-8-25,69.8,61.4,56.4,55.7,54.1,52.2,93,78,59,0.00,0.00,5,2,13,0.00
2014-8-26,78.1,64.5,56.7,54.9,53.6,51.3,83,70,44,0.00,0.00,6,2,14,0.00
2014-8-27,84.5,65.5,49.4,57.9,52.0,45.6,90,67,31,0.00,0.00,6,2,12,0.00
2014-8-28,86.4,64.8,51.2,58.1,53.4,46.9,93,70,36,0.00,0.00,6,2,14,0.00
2014-8-29,75.1,61.0,54.1,56.6,54.3,50.2,93,80,52,0.00,0.00,5,1,12,0.00
2014-8-30,92.9,71.1,48.8,55.5,49.7,43.9,91,55,19,0.00,0.00,5,2,15,0.00
2014-8-31,89.1,68.0,48.9,53.6,50.0,44.9,87,58,24,0.00,0.00,5,2,12,0.00
2014-9-1,86.0,64.8,48.5,52.2,49.1,43.5,86,63,30,0.00,0.00,3,2,9,0.00
2014-9-2,86.0,64.9,48.5,54.7,52.3,44.7,90,68,30,0.00,0.00,7,4,18,0.00
2014-9-3,77.0,62.1,54.6,56.8,54.6,50.9,94,79,50,0.00,0.00,6,3,14,0.00
2014-9-4,75.5,61.5,54.6,56.3,54.6,50.9,94,80,51,0.00,0.00,6,3,18,0.00
2014-9-5,74.9,62.6,50.9,54.4,52.6,47.2,87,72,48,0.00,0.00,6,3,14,0.00
2014-9-6,77.8,60.4,46.0,52.7,49.4,42.4,88,70,39,0.00,0.00,6,2,14,0.00
2014-9-7,77.4,59.4,44.7,52.3,48.5,41.3,89,70,41,0.00,0.00,5,2,12,0.00
2014-9-8,70.1,57.2,48.2,51.5,49.7,44.4,90,78,51,0.00,0.00,4,2,11,0.00
2014-9-9,80.2,61.7,48.3,54.3,51.6,44.7,92,73,40,0.00,0.00,6,2,15,0.00
2014-9-10,93.9,64.7,44.2,55.5,49.2,40.2,89,64,20,0.00,0.00,5,2,11,0.00
2014-9-11,92.3,65.3,45.7,52.6,47.8,41.3,88,60,19,0.00,0.00,6,2,12,0.00
2014-9-12,88.4,64.6,44.1,55.6,48.6,40.4,88,62,27,0.00,0.00,6,2,12,0.00
2014-9-13,84.0,63.4,49.2,56.7,52.1,46.0,89,70,39,0.00,0.00,6,2,15,0.00
2014-9-14,84.0,63.2,51.8,59.1,50.9,34.4,89,69,22,0.00,0.00,7,2,18,0.00
2014-9-15,80.8,61.2,45.5,54.4,48.8,41.9,91,68,36,0.00,0.00,6,2,17,0.00
2014-9-16,83.9,63.4,44.6,55.7,50.2,41.1,89,66,33,0.00,0.00,5,2,13,0.00
2014-9-17,76.7,64.3,54.1,62.6,54.8,50.3,92,73,44,0.00,0.00,6,2,18,0.00
2014-9-18,73.4,67.1,58.5,65.1,62.0,56.6,93,84,66,0.00,0.00,5,3,13,0.05
2014-9-19,76.3,62.4,52.0,63.1,57.3,50.6,96,84,61,0.00,0.00,6,2,14,0.23
2014-9-20,71.6,63.0,58.7,59.5,57.8,56.6,95,84,61,0.00,0.00,5,2,13,0.00
2014-9-21,75.3,65.1,57.6,56.8,56.1,55.0,91,74,53,0.00,0.00,4,2,13,0.00
2014-9-22,79.5,63.8,52.4,57.7,53.6,50.2,93,73,39,0.00,0.00,4,2,13,0.00
2014-9-23,81.1,62.9,46.2,61.4,54.7,44.1,92,77,51,0.00,0.00,5,2,14,0.00
2014-9-24,74.5,67.3,62.0,65.7,61.8,57.3,93,83,66,0.00,0.00,5,2,13,0.00
2014-9-25,70.2,62.3,56.2,58.7,56.8,54.7,95,83,63,0.00,0.00,4,2,13,0.00
2014-9-26,73.0,59.8,49.8,57.0,53.0,48.4,95,81,50,0.00,0.00,6,2,36,0.00
2014-9-27,78.1,60.6,47.4,57.6,52.1,46.3,96,78,37,0.00,0.00,4,2,13,0.23
2014-9-28,71.5,58.7,48.3,57.5,53.3,46.9,96,84,54,0.00,0.00,5,2,13,0.00
2014-9-29,74.9,59.4,50.4,57.3,53.6,48.8,96,83,52,0.00,0.00,6,2,13,0.00
2014-9-30,81.4,61.0,46.8,63.5,51.3,39.9,96,76,37,0.00,0.00,4,1,11,0.00
2014-10-1,89.3,63.6,45.3,55.8,42.9,26.6,94,60,11,0.00,0.00,4,2,28,0.00
2014-10-2,92.9,63.0,41.0,49.9,41.1,22.9,92,58,8,0.00,0.00,2,1,9,0.00
2014-10-3,94.9,64.6,43.2,45.4,38.4,23.0,91,53,9,0.00,0.00,4,1,11,0.00
2014-10-4,94.7,64.4,43.0,45.9,39.3,17.9,90,54,6,0.00,0.00,4,1,11,0.00
2014-10-5,94.3,64.4,44.3,52.5,43.6,34.8,89,58,13,0.00,0.00,4,1,11,0.00
2014-10-6,92.0,64.0,45.4,59.6,47.5,42.9,91,63,20,0.00,0.00,4,1,10,0.00
2014-10-7,84.2,59.8,41.1,63.9,48.3,38.6,92,71,34,0.00,0.00,6,2,11,0.00
2014-10-8,93.1,64.1,42.8,52.8,44.4,32.9,91,61,13,0.00,0.00,5,2,15,0.00
2014-10-9,81.6,58.1,42.8,55.0,47.9,40.1,90,72,37,0.00,0.00,6,2,13,0.00
2014-10-10,75.0,60.1,48.8,53.2,50.9,46.0,95,74,46,0.00,0.00,6,2,14,0.00
2014-10-11,82.5,59.5,44.9,60.4,50.3,42.5,96,77,35,0.00,0.00,5,2,10,0.00
2014-10-12,96.1,65.2,45.5,52.5,38.5,2.8,93,57,3,0.00,0.00,5,2,11,0.00
2014-10-13,87.7,60.6,41.9,54.4,42.6,25.4,86,61,10,0.00,0.00,7,2,20,0.00
2014-10-14,64.1,61.0,58.5,57.5,56.0,54.4,91,84,75,0.00,0.00,5,3,15,0.00
2014-10-15,70.2,61.2,51.1,62.9,53.9,47.4,95,79,46,0.00,0.00,4,2,12,0.00
2014-10-16,70.4,59.7,45.7,51.0,46.0,43.7,95,66,38,0.00,0.00,4,2,11,0.00
2014-10-17,70.4,62.6,50.9,60.3,52.1,43.7,96,72,38,0.00,0.00,4,2,11,0.00
2014-10-18,76.8,65.1,55.4,61.2,58.0,53.7,97,80,50,0.00,0.00,4,1,12,0.00
2014-10-19,74.3,61.1,50.4,58.8,55.4,49.1,98,83,55,0.00,0.00,6,2,12,0.00
2014-10-20,68.3,60.1,47.7,58.6,54.6,46.1,96,83,59,0.00,0.00,4,2,18,0.00
2014-10-21,72.4,55.0,42.0,50.9,46.4,40.8,96,77,39,0.00,0.00,4,2,14,0.00
2014-10-22,74.5,56.9,42.6,55.2,48.6,41.4,96,77,46,0.00,0.00,4,2,12,0.00
2014-10-23,70.0,59.6,53.2,59.2,55.0,51.4,95,85,65,0.00,0.00,2,1,5,0.00
2014-10-24,71.2,58.6,47.1,62.7,53.0,46.2,99,83,58,0.00,0.00,5,2,14,0.00
2014-10-25,68.5,61.1,50.8,59.4,55.9,49.9,97,84,66,0.00,0.00,6,4,22,0.00
2014-10-26,68.9,54.1,44.1,50.4,45.8,37.9,98,79,34,0.00,0.00,6,2,19,0.27
2014-10-27,70.4,52.3,38.4,50.8,44.6,37.4,96,79,41,0.00,0.00,3,1,10,0.00
2014-10-28,76.2,55.1,39.7,54.2,46.6,38.7,96,78,39,0.00,0.00,3,1,10,0.00
2014-10-29,81.6,59.8,46.2,60.0,51.0,45.2,96,78,35,0.00,0.00,2,1,6,0.00
2014-10-30,72.9,59.6,49.4,57.5,52.5,48.3,96,80,46,0.00,0.00,4,2,13,0.00
2014-10-31,66.9,58.3,50.4,57.5,52.6,43.6,95,82,57,0.00,0.00,4,2,12,0.00
2014-11-1,66.9,52.8,40.4,55.2,43.7,33.5,96,75,42,0.00,0.00,4,2,15,0.00
2014-11-2,69.1,50.1,37.4,51.4,41.4,31.0,95,77,37,0.00,0.00,3,1,10,0.00
2014-11-3,68.5,51.0,40.3,49.0,42.7,37.8,96,78,35,0.00,0.00,4,1,11,0.00
2014-11-4,72.2,52.2,38.8,51.7,43.7,37.6,95,78,36,0.00,0.00,3,1,8,0.00
2014-11-5,77.3,56.1,41.9,52.5,46.2,37.9,96,75,35,0.00,0.00,3,1,8,0.00
2014-11-6,76.1,56.3,44.9,53.3,47.5,40.9,95,77,35,0.00,0.00,3,1,10,0.00
2014-11-7,73.3,54.5,41.8,56.1,48.8,40.5,95,83,52,0.00,0.00,3,1,8,0.00
2014-11-8,82.4,57.0,41.1,56.0,47.7,39.8,95,76,25,0.00,0.00,2,1,6,0.00
2014-11-9,75.8,55.0,41.0,54.0,47.3,39.7,95,79,44,0.00,0.00,5,1,13,0.00
2014-11-10,74.6,54.2,40.1,54.2,47.5,36.8,95,81,44,0.00,0.00,4,2,12,0.00
2014-11-11,60.3,57.1,55.1,53.2,51.3,47.0,90,82,62,0.00,0.00,3,1,9,0.00